Weather History for KMWH - June, 2012

Change the Weather History Date:

Wednesday, June 27, 2012

  Actual Average Record
Temperature  
Mean Temperature 60 °F 68 °F  
Max Temperature 73 °F 83 °F 106 °F (2015)
Min Temperature 47 °F 54 °F 46 °F (1998)
Degree Days  
Heating Degree Days 5 1  
Month to date heating degree days 86 50  
Since 1 June heating degree days 86 50  
Since 1 July heating degree days 5837 5877  
Cooling Degree Days 0 5  
Month to date cooling degree days 50 71  
Year to date cooling degree days 77 96  
Since 1 June cooling degree days 50 71  
Growing Degree Days 10 (Base 50)    
Moisture  
Dew Point 43 °F    
Average Humidity 60    
Maximum Humidity 86    
Minimum Humidity 33    
Precipitation  
Precipitation 0.00 in 0.01 in 0.80 in (1982)
Month to date precipitation 1.88 0.71  
Year to date precipitation 4.77 4.73  
Sea Level Pressure  
Sea Level Pressure 30.01 in    
Wind  
Wind Speed 6 mph (South)    
Max Wind Speed 13 mph    
Max Gust Speed 21 mph    
Visibility 10 miles    
Events      
T = Trace of Precipitation, MM = Missing Value Source: NWS Daily Summary

Daily Weather History Graph

Daily Weather History Graph

Search for Another Location

Airport or City:

Trip Planner

Search our weather history database for the weather conditions in past years. The results will help you decide how hot, cold, wet, or windy it might be!

Date:

Astronomy

Jun. 27, 2012 Rise Set
Actual Time 5:03 AM PDT 8:57 PM PDT
Civil Twilight 4:23 AM PDT 9:37 PM PDT
Nautical Twilight 3:28 AM PDT 10:32 PM PDT
Astronomical Twilight 2:05 AM PDT 11:54 PM PDT
Moon 2:10 PM PDT (6/27) 12:25 AM PDT (6/27)
Length of Visible Light 17h 13m
Length of Day
15h 53m
First Quarter, 57% of the Moon is Illuminated
Jun 27
First Quarter
Jul 3
Full
Jul 10
Last Quarter
Jul 18
New
Jul 26
First Quarter

Hourly Weather History & Observations

Time (PDT) Temp. Dew Point Humidity Pressure Visibility Wind Dir Wind Speed Gust Speed Precip Events Conditions
12:52 AM 52.0 °F 44.1 °F 74% 30.01 in 10.0 mi SW 3.5 mph - N/A   Clear
1:52 AM 52.0 °F 44.1 °F 74% 30.01 in 10.0 mi SW 6.9 mph - N/A   Clear
2:52 AM 51.1 °F 42.1 °F 71% 30.01 in 10.0 mi WSW 4.6 mph - N/A   Clear
3:52 AM 48.0 °F 42.1 °F 80% 30.02 in 10.0 mi South 4.6 mph - N/A   Clear
4:52 AM 51.1 °F 41.0 °F 68% 30.02 in 10.0 mi SW 6.9 mph - N/A   Clear
5:52 AM 46.9 °F 42.1 °F 83% 30.04 in 10.0 mi SSE 6.9 mph - N/A   Clear
6:52 AM 52.0 °F 45.0 °F 77% 30.05 in 10.0 mi SSE 4.6 mph - N/A   Clear
7:52 AM 55.9 °F 42.1 °F 60% 30.06 in 10.0 mi SSW 9.2 mph - N/A   Clear
8:52 AM 59.0 °F 43.0 °F 55% 30.06 in 10.0 mi SSW 10.4 mph - N/A   Clear
9:52 AM 62.1 °F 42.1 °F 48% 30.06 in 10.0 mi South 11.5 mph - N/A   Clear
10:52 AM 64.0 °F 44.1 °F 48% 30.06 in 10.0 mi SSE 11.5 mph 20.7 mph N/A   Clear
11:52 AM 66.0 °F 44.1 °F 45% 30.06 in 10.0 mi SW 10.4 mph 18.4 mph N/A   Clear
12:52 PM 66.9 °F 39.0 °F 36% 30.04 in 10.0 mi Variable 3.5 mph - N/A   Clear
1:52 PM 69.1 °F 42.1 °F 38% 30.03 in 10.0 mi SSW 5.8 mph - N/A   Clear
2:52 PM 71.1 °F 42.1 °F 35% 30.01 in 10.0 mi Variable 6.9 mph - N/A   Clear
3:52 PM 71.1 °F 44.1 °F 38% 30.01 in 10.0 mi Variable 5.8 mph - N/A   Clear
4:52 PM 72.0 °F 44.1 °F 37% 29.98 in 10.0 mi SSE 4.6 mph - N/A   Clear
5:52 PM 72.0 °F 41.0 °F 33% 29.97 in 10.0 mi SE 3.5 mph - N/A   Clear
6:52 PM 73.0 °F 42.1 °F 33% 29.96 in 10.0 mi Calm Calm - N/A   Clear
7:52 PM 72.0 °F 42.1 °F 34% 29.94 in 10.0 mi East 3.5 mph - N/A   Clear
8:52 PM 66.9 °F 45.0 °F 45% 29.94 in 10.0 mi NE 3.5 mph - N/A   Clear
9:52 PM 62.1 °F 46.9 °F 58% 29.94 in 10.0 mi North 4.6 mph - N/A   Clear
10:52 PM 60.1 °F 46.9 °F 62% 29.95 in 10.0 mi North 5.8 mph - N/A   Clear
11:52 PM 57.9 °F 48.0 °F 70% 29.95 in 10.0 mi NNE 6.9 mph - N/A   Clear